This is the latest recevied weather packets stored in our database for station/object IW4CYE-7. If no packets are shown the sender has not sent any weather packets the latest 10 day(s).
| Time | Temp. | Humidity | Pressure | Rain* | Wind** | Luminosity | Snow |
|---|---|---|---|---|---|---|---|
| 1788089241 | 30.56° C | 61% | 1003.4 hPa | 0 mm | - | - | - |
| 1788088641 | 29.44° C | 62% | 1003.7 hPa | 0 mm | - | - | - |
| 1788088041 | 29.44° C | 64% | 1003.7 hPa | 0 mm | - | - | - |
| 1788087441 | 28.89° C | 65% | 1003.7 hPa | 0 mm | - | - | - |
| 1788086841 | 29.44° C | 63% | 1003.7 hPa | 0 mm | - | - | - |
| 1788086241 | 28.89° C | 64% | 1003.7 hPa | 0 mm | - | - | - |
| 1788085641 | 28.33° C | 64% | 1004.1 hPa | 0 mm | - | - | - |
| 1788085041 | 28.33° C | 64% | 1003.7 hPa | 0 mm | - | - | - |
| 1788084441 | 28.33° C | 62% | 1004.4 hPa | 0 mm | - | - | - |
| 1788083841 | 27.78° C | 61% | 1004.1 hPa | 0 mm | - | - | - |
| 1788083241 | 27.22° C | 61% | 1004.4 hPa | 0 mm | - | - | - |
| 1788082641 | 27.22° C | 64% | 1004.4 hPa | 0 mm | - | - | - |
| 1788082041 | 26.67° C | 63% | 1004.4 hPa | 0 mm | - | - | - |
| 1788081441 | 26.67° C | 62% | 1004.4 hPa | 0 mm | - | - | - |
| 1788080841 | 26.11° C | 63% | 1004.4 hPa | 0 mm | - | - | - |
| 1788080241 | 26.11° C | 63% | 1004.4 hPa | 0 mm | - | - | - |
| 1788079641 | 26.11° C | 62% | 1004.4 hPa | 0 mm | - | - | - |
| 1788079041 | 25.56° C | 62% | 1004.7 hPa | 0 mm | - | - | - |
| 1788078441 | 25.56° C | 62% | 1004.4 hPa | 0 mm | - | - | - |
| 1788077841 | 25° C | 63% | 1004.4 hPa | 0 mm | - | - | - |
| 1788077241 | 25° C | 65% | 1004.4 hPa | 0 mm | - | - | - |
| 1788076641 | 24.44° C | 64% | 1004.4 hPa | 0 mm | - | - | - |
| 1788076041 | 24.44° C | 63% | 1004.4 hPa | 0 mm | - | - | - |
| 1788075441 | 23.89° C | 63% | 1004.4 hPa | 0 mm | - | - | - |
| 1788074841 | 23.33° C | 63% | 1004.1 hPa | 0 mm | - | - | - |
* Rain latest hour (hover to see other rain measurements)
** Current wind speed in m/s (hover to see current wind gust speed)